Atlanta Dekalb, GA

1:34 PM EDT on June 22, 2017 (GMT -0400)
Dekalb-Peachtree

Weather History for KPDK - June, 2013

Change the Weather History Date:

Friday, June 21, 2013

  Actual Average Record
Temperature  
Mean Temperature 76 °F 78 °F  
Max Temperature 84 °F 88 °F 99 °F (2006)
Min Temperature 67 °F 68 °F 54 °F (2003)
Cooling Degree Days 11 13  
Month to date cooling degree days 238 230  
Year to date cooling degree days 403 441  
Since 1 June cooling degree days 238 230  
Growing Degree Days 25 (Base 50)    
Moisture  
Dew Point 63 °F    
Average Humidity 69    
Maximum Humidity 93    
Minimum Humidity 44    
Precipitation  
Precipitation 0.00 in 0.17 in 1.38 in (2004)
Month to date precipitation 9.00 3.13  
Year to date precipitation 18.52 25.62  
Sea Level Pressure  
Sea Level Pressure 30.17 in    
Wind  
Wind Speed 2 mph (East)    
Max Wind Speed 22 mph    
Max Gust Speed -    
Visibility 10 miles    
Events      
T = Trace of Precipitation, MM = Missing Value Source: NWS Daily Summary

Daily Weather History Graph

Daily Weather History Graph

Search for Another Location

Airport or City:

Trip Planner

Search our weather history database for the weather conditions in past years. The results will help you decide how hot, cold, wet, or windy it might be!

Date:

Astronomy

Jun. 21, 2013 Rise Set
Actual Time 6:26 AM EDT 8:51 PM EDT
Civil Twilight 5:57 AM EDT 9:20 PM EDT
Nautical Twilight 5:21 AM EDT 9:56 PM EDT
Astronomical Twilight 4:42 AM EDT 10:35 PM EDT
Moon 7:04 PM EDT (6/21) 4:37 AM EDT (6/21)
Length of Visible Light 15h 23m
Length of Day
14h 24m
Waxing Gibbous, 95% of the Moon is Illuminated
Jun 21
Waxing Gibbous
Jun 23
Full
Jun 30
Last Quarter
Jul 8
New
Jul 15
First Quarter

Hourly Weather History & Observations

Time (EDT) Temp. Heat Index Dew Point Humidity Pressure Visibility Wind Dir Wind Speed Gust Speed Precip Events Conditions
12:53 AM 70.0 °F - 64.0 °F 81% 30.17 in 10.0 mi Calm Calm - N/A   Clear
1:53 AM 69.1 °F - 64.0 °F 84% 30.16 in 10.0 mi Calm Calm - N/A   Clear
2:53 AM 69.1 °F - 64.0 °F 84% 30.14 in 9.0 mi East 3.5 mph - N/A   Clear
3:53 AM 68.0 °F - 63.0 °F 84% 30.16 in 10.0 mi Calm Calm - N/A   Scattered Clouds
4:53 AM 68.0 °F - 63.0 °F 84% 30.16 in 9.0 mi Calm Calm - N/A   Scattered Clouds
5:53 AM 68.0 °F - 63.0 °F 84% 30.17 in 9.0 mi Calm Calm - N/A   Clear
6:53 AM 66.9 °F - 64.0 °F 90% 30.19 in 7.0 mi East 3.5 mph - N/A   Clear
7:53 AM 70.0 °F - 64.0 °F 81% 30.19 in 8.0 mi Calm Calm - N/A   Clear
8:53 AM 73.0 °F - 64.9 °F 76% 30.21 in 9.0 mi East 3.5 mph - N/A   Clear
9:53 AM 75.0 °F - 64.9 °F 71% 30.21 in 10.0 mi Variable 4.6 mph - N/A   Clear
10:53 AM 79.0 °F - 64.0 °F 60% 30.21 in 10.0 mi Variable 6.9 mph - N/A   Partly Cloudy
11:53 AM 81.0 °F 82.5 °F 64.0 °F 56% 30.22 in 10.0 mi Variable 5.8 mph - N/A   Partly Cloudy
12:53 PM 81.0 °F 82.2 °F 63.0 °F 54% 30.21 in 10.0 mi Variable 3.5 mph - N/A   Mostly Cloudy
1:53 PM 81.0 °F 81.9 °F 62.1 °F 52% 30.21 in 10.0 mi Variable 5.8 mph - N/A   Scattered Clouds
2:53 PM 82.0 °F 82.7 °F 61.0 °F 49% 30.19 in 10.0 mi East 6.9 mph - N/A   Mostly Cloudy
3:53 PM 84.0 °F 84.0 °F 60.1 °F 44% 30.17 in 10.0 mi Calm Calm - N/A   Partly Cloudy
4:53 PM 82.9 °F 83.3 °F 61.0 °F 47% 30.15 in 10.0 mi NE 3.5 mph - N/A   Partly Cloudy
5:53 PM 82.9 °F 83.2 °F 60.1 °F 46% 30.14 in 10.0 mi East 4.6 mph - N/A   Partly Cloudy
6:53 PM 80.1 °F 81.1 °F 61.0 °F 52% 30.13 in 10.0 mi ESE 3.5 mph - N/A   Clear
7:53 PM 80.1 °F 81.1 °F 61.0 °F 52% 30.13 in 10.0 mi East 3.5 mph - N/A   Clear
8:53 PM 77.0 °F - 63.0 °F 62% 30.13 in 10.0 mi Calm Calm - N/A   Clear
9:53 PM 73.9 °F - 63.0 °F 68% 30.14 in 10.0 mi Calm Calm - N/A   Clear
10:53 PM 73.0 °F - 63.0 °F 71% 30.16 in 10.0 mi Calm Calm - N/A   Clear
11:53 PM 73.0 °F - 63.0 °F 71% 30.16 in 10.0 mi Calm Calm - N/A   Clear